Wind_Speed
24 24 24 25 25 25 25 25 25 25 24 23 24 24 24 25 25 25 25 25 25 25 26 26 27 28 28 28 28 28 27 27 27 27 26 26 25 25 26 25 26 27 27
25 25 25 25 26 26 26 25 25 25 24 25 25 25 26 26 25 26 26 26 26 27 27 27 27 28 29 29 29 29 28 28 28 27 27 27 27 26 26 27 27 27 28
26 26 26 25 26 26 26 26 26 26 26 26 27 27 27 26 26 27 27 27 27 27 27 28 28 28 30 30 30 30 30 30 30 29 29 28 28 27 27 27 27 27 29
26 27 26 26 27 27 26 27 27 28 27 28 27 27 27 27 27 27 27 27 27 27 27 27 28 29 30 30 31 31 32 31 31 30 30 30 29 28 28 28 28 28 29
28 29 27 27 27 27 27 27 28 28 28 28 28 28 28 28 28 28 28 28 28 27 27 27 28 29 30 30 31 31 32 32 32 32 31 31 30 30 29 30 29 28 28
29 29 28 27 28 27 27 28 29 30 30 30 30 30 30 29 29 29 28 28 28 28 28 29 29 30 30 31 31 32 33 34 33 34 33 32 32 31 30 30 30 29 28
29 29 28 28 28 28 27 28 30 30 31 31 30 30 30 30 29 29 29 28 28 28 29 29 30 31 31 32 32 33 33 35 35 34 34 34 33 33 32 32 31 30 29
30 29 29 28 28 28 28 29 30 31 31 30 30 29 29 29 29 29 28 28 27 28 29 29 30 31 31 32 32 32 33 35 35 36 35 35 33 33 33 33 33 32 31
30 30 29 29 28 29 30 30 31 31 30 30 30 30 29 28 27 26 27 27 28 28 28 29 30 30 31 32 32 33 33 34 35 36 36 36 35 33 33 32 33 33 33
30 30 30 29 30 30 30 31 31 30 29 28 29 28 28 28 27 26 27 28 29 28 29 29 29 29 30 31 33 34 34 34 35 36 36 36 36 35 34 34 33 34 34
29 30 30 30 31 30 29 30 30 29 29 28 28 27 28 27 27 27 27 28 28 28 28 28 28 28 29 29 31 33 34 35 35 36 36 36 36 36 35 34 35 35 35
29 30 31 30 30 29 30 30 29 29 28 28 28 28 27 26 27 27 27 28 28 28 28 27 28 29 28 28 30 32 34 34 35 35 36 36 36 36 36 36 36 35 35
28 29 30 30 30 30 30 28 28 28 28 28 28 28 28 27 27 27 27 27 27 27 27 28 29 29 28 28 29 31 33 34 34 34 35 35 36 35 35 36 36 37 36
28 30 29 29 30 29 29 28 27 27 27 27 27 27 27 27 27 27 27 27 27 27 27 27 27 28 28 28 28 29 30 32 33 34 33 33 35 35 35 35 36 37 37
28 28 27 27 28 28 28 28 27 28 28 27 27 27 26 27 27 27 27 27 27 27 26 26 27 27 28 28 28 28 28 29 31 32 33 33 34 34 35 35 35 35 37
26 26 25 25 26 27 28 27 27 27 27 27 27 27 26 26 26 26 27 27 27 26 26 26 27 27 26 26 26 26 27 28 30 30 32 33 33 33 34 35 35 35 35
25 25 25 26 26 26 26 27 27 27 27 27 26 26 26 26 26 26 26 26 26 26 26 26 26 26 26 25 24 24 25 26 28 29 30 32 33 33 33 34 34 35 34
25 25 25 25 25 26 26 26 26 26 27 26 26 26 26 26 26 26 25 26 26 26 26 25 24 24 23 23 23 23 24 25 26 27 28 30 32 32 33 33 33 33 34
25 25 24 25 24 26 26 26 26 25 25 25 25 26 26 26 26 26 26 26 26 25 25 24 24 23 22 22 21 21 22 23 24 25 26 29 30 31 31 31 31 32 32
24 23 23 23 24 25 25 25 24 24 25 25 25 25 26 26 26 26 26 26 26 25 24 24 23 22 21 20 20 19 20 21 23 24 25 27 28 29 30 30 30 31 32
22 22 22 22 23 23 23 23 24 25 25 25 25 25 25 25 26 26 25 25 25 25 23 22 21 21 20 19 19 20 20 21 22 22 23 24 25 27 28 29 30 30 31
21 21 21 21 21 22 22 24 25 25 25 25 24 24 24 25 25 24 24 24 23 23 22 22 21 21 20 19 20 20 21 21 21 21 22 22 23 24 25 26 28 29 30
20 20 20 20 20 21 23 24 24 24 24 24 23 23 23 23 23 22 23 23 23 23 23 23 22 21 20 20 20 21 21 22 21 21 21 21 22 23 24 25 26 27 28
19 19 19 19 20 20 21 22 23 23 22 22 22 22 22 22 22 23 23 23 23 24 24 24 23 22 22 21 21 21 21 21 21 21 21 21 21 22 23 24 24 25 26
18 18 19 19 20 21 21 22 22 22 22 22 21 22 22 22 23 23 23 24 24 24 24 24 24 23 22 22 22 22 22 22 20 21 22 22 22 22 23 23 24 24 25
17 18 18 19 20 20 21 21 22 22 22 22 22 23 23 24 24 24 24 25 24 23 22 22 21 21 21 21 22 22 22 22 21 21 21 21 22 22 23 23 24 24 24
Wind_Direction
303 301 303 303 303 301 298 297 297 297 295 294 295 296 295 295 293 291 287 282 278 276 272 270 267 263 260 259 259 258 257 256 255 255 253 252 251 251 249 248 243 240 238
301 302 302 303 305 303 299 297 297 297 296 296 297 295 294 293 293 291 288 285 281 277 273 270 268 264 261 259 258 258 257 257 255 254 254 251 250 251 250 248 246 242 240
302 302 302 301 302 303 301 298 298 298 297 297 296 295 294 293 293 291 288 285 282 279 277 273 269 265 262 259 258 257 256 256 255 253 254 252 250 249 249 248 247 243 239
299 302 303 301 301 302 300 298 299 299 298 298 297 295 295 293 292 291 289 286 283 280 277 274 271 267 263 260 258 256 255 256 256 255 253 253 251 250 248 247 247 244 240
299 299 301 301 302 301 301 299 299 299 299 298 297 296 295 293 291 290 289 287 284 281 278 276 273 270 266 261 260 257 255 255 255 255 254 252 252 250 249 247 246 246 243
299 298 300 300 301 302 301 300 300 299 299 298 297 296 295 293 291 290 289 287 284 281 279 278 275 272 268 264 261 258 256 255 255 255 254 252 251 250 250 248 246 246 243
297 298 299 299 300 300 300 300 301 301 299 298 298 297 296 293 290 290 289 287 284 282 280 279 276 273 270 265 261 258 256 254 253 254 253 253 251 250 249 248 247 246 243
295 298 299 298 298 298 299 300 301 302 301 299 299 298 296 294 294 292 289 287 285 283 282 280 277 274 271 266 261 257 256 254 253 252 253 252 251 251 250 248 246 244 244
297 298 298 297 299 299 299 300 301 302 301 299 299 299 298 298 295 292 291 289 288 287 285 283 280 277 271 266 262 257 256 254 253 252 251 251 249 251 249 248 246 245 244
296 296 296 296 299 299 299 301 301 302 302 301 300 300 299 299 295 293 291 290 288 287 285 283 282 279 275 269 262 259 256 255 253 252 251 250 250 249 248 248 247 245 245
296 295 296 297 299 299 300 302 302 302 302 302 300 298 297 297 298 296 294 292 290 288 286 284 282 280 277 272 265 259 256 254 252 251 250 250 250 249 247 248 248 247 247
296 295 297 298 298 299 300 301 303 302 301 300 299 298 297 297 298 297 296 293 291 289 287 284 281 280 277 272 268 261 256 254 252 251 250 250 250 250 247 247 247 248 248
296 296 297 297 299 299 301 301 302 302 300 299 299 298 298 298 298 298 297 295 294 292 289 286 283 281 278 274 271 265 258 254 252 251 251 251 250 250 248 248 246 246 247
296 297 297 297 299 300 301 300 301 301 300 299 299 298 298 299 298 298 298 296 295 294 290 288 286 283 279 276 273 268 261 255 253 251 251 252 251 250 250 248 246 246 244
296 297 297 298 299 300 301 302 301 301 298 297 298 298 298 299 299 298 297 298 297 295 292 290 289 286 283 278 274 269 263 256 253 251 250 252 252 251 250 248 246 245 244
297 296 297 301 303 303 303 304 303 303 301 298 298 299 298 298 298 298 299 298 298 297 294 292 290 287 284 279 275 269 264 258 254 253 252 251 251 251 250 250 248 246 244
297 297 300 303 304 304 306 306 303 304 303 301 300 300 299 298 298 298 299 298 298 298 297 295 291 289 285 281 276 269 263 258 254 253 252 252 252 252 251 250 251 247 244
297 299 300 303 304 306 307 306 305 305 304 303 301 301 300 300 301 299 298 299 299 297 296 295 293 290 286 281 275 269 264 259 257 257 254 252 252 252 252 250 250 247 246
300 300 300 303 305 307 306 307 306 306 306 304 302 300 301 302 302 301 298 298 299 299 297 294 292 290 286 280 274 269 265 261 259 258 257 255 253 252 253 250 248 248 248
302 301 302 303 305 307 308 309 308 308 308 307 305 301 301 301 302 301 299 298 298 298 297 294 292 288 284 278 273 268 267 263 260 258 257 255 253 252 250 249 248 248 248
303 303 303 304 304 306 308 310 311 311 310 309 306 302 301 302 303 301 301 299 299 298 297 295 292 288 282 277 272 268 267 263 261 261 258 256 254 252 249 248 247 248 246
307 306 305 306 306 308 312 313 312 313 312 310 308 306 305 304 305 303 302 302 301 300 298 295 291 288 283 276 272 270 268 265 264 263 261 258 256 254 249 248 248 248 247
310 310 310 309 310 310 311 316 315 315 315 315 313 309 307 308 309 308 305 304 303 300 297 296 292 289 284 279 274 272 271 268 266 262 260 258 256 254 250 249 249 249 248
315 314 315 314 312 312 315 319 319 318 317 318 318 315 311 310 310 308 305 305 303 301 297 294 291 287 282 278 277 274 271 266 265 263 262 259 257 254 250 248 248 250 250
318 317 319 319 315 314 317 319 320 318 318 318 319 316 313 311 310 308 306 305 303 301 299 296 290 285 282 278 274 272 267 264 263 263 263 261 257 255 252 249 248 248 248
323 322 322 321 318 317 319 320 319 321 320 319 319 318 316 314 312 310 308 306 303 301 299 296 293 288 285 282 277 271 268 262 259 260 261 260 257 255 253 250 249 249 248
Height
5842 5840 5838 5837 5835 5833 5831 5830 5828 5826 5825 5823 5822 5821 5819 5818 5816 5815 5814 5813 5813 5812 5812 5813 5813 5814 5815 5816 5817 5818 5819 5821 5822 5823 5825 5827 5828 5830 5832 5834 5835 5837 5840
5838 5836 5834 5832 5830 5828 5826 5824 5823 5821 5820 5818 5817 5815 5814 5812 5810 5809 5808 5807 5806 5805 5805 5806 5806 5807 5807 5809 5810 5811 5813 5814 5815 5817 5819 5820 5822 5824 5826 5828 5830 5832 5834
5833 5831 5829 5827 5825 5823 5821 5819 5817 5816 5814 5812 5811 5809 5807 5806 5804 5802 5801 5800 5799 5798 5798 5798 5798 5799 5800 5801 5803 5804 5806 5807 5809 5810 5812 5814 5816 5817 5819 5821 5823 5826 5828
5829 5827 5825 5822 5820 5818 5816 5814 5812 5810 5808 5806 5805 5803 5801 5799 5797 5796 5794 5793 5792 5791 5791 5791 5791 5791 5792 5793 5795 5796 5798 5800 5801 5803 5805 5807 5809 5811 5813 5815 5817 5819 5821
5824 5822 5820 5817 5815 5813 5811 5808 5806 5804 5802 5800 5798 5796 5795 5792 5790 5789 5787 5785 5784 5783 5783 5783 5783 5783 5784 5785 5787 5788 5790 5792 5794 5796 5798 5800 5802 5804 5806 5808 5810 5812 5815
5818 5816 5814 5812 5810 5807 5805 5803 5800 5798 5796 5794 5792 5790 5787 5785 5783 5781 5779 5778 5777 5775 5775 5775 5775 5775 5776 5776 5778 5780 5781 5783 5785 5787 5790 5792 5794 5797 5799 5801 5803 5805 5808
5812 5810 5808 5806 5804 5802 5799 5797 5795 5792 5790 5787 5785 5783 5780 5777 5775 5773 5771 5770 5769 5768 5767 5766 5766 5766 5767 5767 5769 5770 5772 5774 5777 5779 5781 5784 5786 5789 5791 5794 5796 5798 5801
5806 5804 5802 5800 5798 5796 5794 5791 5789 5786 5783 5781 5778 5776 5773 5771 5768 5766 5764 5763 5762 5760 5759 5758 5757 5757 5757 5758 5759 5761 5763 5765 5768 5770 5773 5775 5778 5780 5783 5785 5788 5791 5794
5801 5798 5796 5794 5792 5790 5788 5785 5782 5779 5776 5774 5771 5768 5766 5764 5761 5759 5757 5755 5754 5753 5751 5750 5749 5748 5748 5749 5750 5752 5754 5756 5758 5760 5763 5766 5769 5771 5774 5777 5780 5783 5786
5795 5793 5791 5788 5786 5784 5781 5779 5776 5772 5769 5767 5764 5761 5759 5756 5754 5752 5751 5748 5747 5745 5743 5742 5741 5740 5739 5740 5741 5742 5744 5746 5749 5751 5754 5757 5760 5763 5766 5769 5772 5775 5778
5788 5786 5784 5782 5779 5777 5775 5772 5769 5766 5763 5760 5758 5755 5752 5750 5747 5745 5744 5742 5739 5737 5735 5734 5733 5732 5731 5731 5731 5733 5735 5737 5739 5742 5745 5748 5751 5753 5757 5760 5763 5767 5770
5781 5780 5778 5776 5773 5771 5768 5765 5762 5759 5756 5754 5751 5749 5746 5744 5741 5738 5736 5734 5732 5730 5727 5726 5725 5724 5723 5723 5723 5724 5726 5727 5730 5733 5736 5739 5741 5744 5748 5751 5754 5758 5761
5776 5774 5772 5769 5767 5764 5762 5759 5756 5753 5750 5748 5745 5742 5739 5737 5734 5731 5729 5727 5724 5722 5720 5718 5716 5715 5714 5714 5714 5715 5717 5718 5721 5724 5726 5729 5733 5735 5738 5741 5745 5748 5752
5769 5767 5764 5762 5759 5757 5755 5752 5749 5746 5744 5741 5738 5736 5733 5730 5727 5724 5722 5719 5717 5715 5713 5711 5709 5707 5706 5706 5706 5707 5708 5710 5712 5715 5717 5720 5723 5726 5729 5731 5735 5738 5742
5762 5760 5758 5756 5753 5751 5748 5745 5742 5740 5737 5734 5732 5729 5726 5723 5720 5718 5715 5712 5710 5707 5706 5704 5702 5700 5699 5698 5698 5698 5700 5701 5703 5706 5709 5711 5714 5717 5720 5722 5725 5729 5733
5756 5754 5752 5749 5747 5745 5742 5739 5736 5733 5730 5727 5725 5722 5719 5717 5714 5711 5708 5705 5703 5700 5698 5697 5695 5693 5692 5690 5690 5690 5691 5693 5695 5697 5700 5703 5705 5708 5711 5713 5716 5720 5723
5750 5749 5746 5744 5741 5739 5735 5732 5729 5726 5724 5720 5718 5715 5712 5710 5707 5704 5702 5699 5696 5694 5692 5690 5687 5686 5684 5683 5683 5683 5684 5686 5687 5689 5691 5694 5696 5699 5702 5705 5707 5711 5714
5744 5742 5740 5738 5735 5732 5729 5726 5723 5720 5717 5714 5711 5708 5706 5703 5700 5698 5695 5692 5690 5687 5685 5683 5681 5679 5677 5676 5676 5676 5677 5678 5680 5682 5683 5685 5688 5690 5693 5696 5699 5702 5705
5739 5736 5734 5732 5729 5726 5723 5720 5717 5714 5710 5707 5704 5702 5699 5696 5694 5691 5688 5685 5683 5680 5678 5676 5674 5672 5671 5670 5669 5670 5670 5671 5673 5674 5675 5677 5679 5682 5684 5687 5690 5693 5696
5733 5731 5729 5726 5724 5721 5718 5715 5711 5708 5705 5701 5698 5695 5692 5690 5687 5684 5681 5679 5676 5674 5671 5669 5667 5666 5665 5664 5663 5664 5664 5665 5666 5667 5668 5669 5671 5673 5676 5679 5682 5684 5687
5727 5725 5723 5721 5718 5716 5712 5709 5706 5702 5699 5695 5692 5689 5686 5683 5680 5677 5675 5672 5669 5667 5665 5663 5661 5660 5659 5658 5658 5658 5658 5658 5659 5659 5660 5662 5663 5665 5667 5670 5673 5675 5678
5723 5720 5718 5716 5713 5710 5707 5704 5700 5697 5693 5689 5686 5683 5680 5677 5674 5671 5668 5665 5663 5661 5659 5657 5655 5653 5652 5652 5651 5651 5651 5652 5652 5653 5653 5655 5656 5657 5659 5662 5664 5667 5669
5718 5715 5713 5711 5708 5705 5702 5699 5695 5692 5688 5684 5681 5677 5674 5671 5668 5665 5663 5660 5657 5655 5653 5650 5649 5647 5646 5645 5645 5644 5644 5644 5645 5646 5646 5647 5648 5650 5652 5654 5656 5659 5661
5714 5711 5709 5706 5704 5701 5698 5694 5691 5687 5683 5680 5676 5672 5669 5666 5663 5660 5657 5654 5651 5649 5646 5643 5642 5641 5639 5638 5638 5637 5637 5638 5638 5639 5639 5641 5641 5643 5645 5647 5649 5651 5653
5711 5708 5705 5703 5700 5697 5694 5690 5687 5683 5679 5675 5671 5668 5664 5661 5658 5654 5651 5648 5645 5642 5639 5637 5635 5633 5632 5631 5630 5630 5630 5631 5632 5632 5632 5633 5635 5636 5637 5639 5641 5643 5645
5708 5705 5702 5699 5697 5694 5690 5686 5682 5679 5675 5671 5667 5663 5659 5655 5652 5648 5644 5641 5638 5635 5632 5630 5628 5626 5625 5624 5623 5623 5623 5624 5625 5625 5626 5626 5627 5629 5630 5632 5634 5636 5638